When you browse on this site, cookies collect data to enhance your experience and personalize the content and advertising you see.
Visit our Privacy Policy to learn more. By continuing to use the site, you agree to this use of cookies and data.
  • Em Portugal
  • Lista de países
  • Para 7 dias
  • Temperatura da água
  • Mapas de satélite
  • Mapa do tempo
  • Widgets de tempo
  • user-avatar
    Iniciar Sessão

    Previsão horária em Skalnyy

    Hoje, 16 Fevereiro, Sábado

    Tempo Temperatura Precipitação Vento Pressão Humidade
    00:00 -12°C° 0.2 mm 2 m/s 723 mmHg 94%
    01:00 -10°C° 0.2 mm 2 m/s 723 mmHg 94%
    02:00 -10°C° 0.2 mm 2 m/s 722 mmHg 94%
    03:00 -10°C° 0.2 mm 2 m/s 722 mmHg 94%
    04:00 -10°C° 0.2 mm 2 m/s 721 mmHg 95%
    05:00 -10°C° 0.2 mm 2 m/s 721 mmHg 95%
    06:00 -10°C° 0.2 mm 2 m/s 721 mmHg 95%
    07:00 -10°C° 0.2 mm 2 m/s 720 mmHg 96%
    08:00 -9°C° 0.1 mm 2 m/s 720 mmHg 94%
    09:00 -9°C° 0.1 mm 2 m/s 720 mmHg 93%
    10:00 -8°C° 0.1 mm 2 m/s 720 mmHg 92%
    11:00 -8°C° 0.1 mm 2 m/s 720 mmHg 90%
    12:00 -6°C° 0.1 mm 1 m/s 720 mmHg 88%
    13:00 -6°C° 0.1 mm 1 m/s 720 mmHg 86%
    14:00 -6°C° 0.1 mm 1 m/s 720 mmHg 87%
    15:00 -4°C° 0.1 mm 1 m/s 720 mmHg 88%
    16:00 -5°C° 0.1 mm 0 m/s 720 mmHg 89%
    17:00 -7°C° 0 mm 0 m/s 720 mmHg 91%
    18:00 -8°C° 0 mm 0 m/s 720 mmHg 93%
    19:00 -10°C° 0 mm 0 m/s 721 mmHg 95%
    20:00 -10°C° 0 mm 0 m/s 721 mmHg 95%
    21:00 -11°C° 0 mm 0 m/s 721 mmHg 96%
    22:00 -11°C° 0 mm 0 m/s 721 mmHg 96%
    23:00 -11°C° 0 mm 0 m/s 721 mmHg 96%

    Amanhã, 17 Fevereiro, Domingo

    Tempo Temperatura Precipitação Vento Pressão Humidade
    00:00 -11°C° 0 mm 0 m/s 721 mmHg 97%
    01:00 -11°C° 0 mm 0 m/s 721 mmHg 97%
    02:00 -11°C° 0 mm 0 m/s 721 mmHg 97%
    03:00 -11°C° 0 mm 0 m/s 721 mmHg 97%
    04:00 -11°C° 0 mm 0 m/s 721 mmHg 98%
    05:00 -12°C° 0 mm 0 m/s 720 mmHg 98%
    06:00 -12°C° 0 mm 1 m/s 720 mmHg 98%
    07:00 -12°C° 0 mm 1 m/s 720 mmHg 98%
    08:00 -11°C° 0 mm 1 m/s 719 mmHg 97%
    09:00 -10°C° 0 mm 1 m/s 719 mmHg 96%
    10:00 -10°C° 0 mm 1 m/s 719 mmHg 95%
    11:00 -10°C° 0 mm 2 m/s 718 mmHg 94%
    12:00 -8°C° 0 mm 2 m/s 718 mmHg 93%
    13:00 -8°C° 0 mm 3 m/s 717 mmHg 91%
    14:00 -8°C° 0 mm 3 m/s 716 mmHg 91%
    15:00 -8°C° 0 mm 3 m/s 716 mmHg 92%
    16:00 -8°C° 0 mm 3 m/s 715 mmHg 92%
    17:00 -7°C° 0.1 mm 3 m/s 715 mmHg 93%
    18:00 -7°C° 0.1 mm 3 m/s 714 mmHg 93%
    19:00 -7°C° 0.1 mm 3 m/s 714 mmHg 94%
    20:00 -7°C° 0.2 mm 3 m/s 713 mmHg 93%
    21:00 -6°C° 0.2 mm 3 m/s 713 mmHg 93%
    22:00 -6°C° 0.2 mm 3 m/s 712 mmHg 92%
    23:00 -6°C° 0.2 mm 3 m/s 712 mmHg 93%

    Depois de amanhã, 18 Fevereiro, Segunda-feira

    Tempo Temperatura Precipitação Vento Pressão Humidade
    00:00 -6°C° 0.2 mm 3 m/s 711 mmHg 93%
    01:00 -7°C° 0.2 mm 3 m/s 711 mmHg 93%
    02:00 -7°C° 0.2 mm 3 m/s 711 mmHg 94%
    03:00 -7°C° 0.2 mm 3 m/s 710 mmHg 94%
    04:00 -7°C° 0.2 mm 3 m/s 710 mmHg 94%
    05:00 -6°C° 0.2 mm 2 m/s 710 mmHg 95%
    06:00 -7°C° 0.2 mm 2 m/s 710 mmHg 96%
    07:00 -6°C° 0.2 mm 1 m/s 710 mmHg 96%
    08:00 -6°C° 0.1 mm 1 m/s 710 mmHg 95%
    09:00 -4°C° 0.1 mm 1 m/s 711 mmHg 94%
    10:00 -4°C° 0.1 mm 1 m/s 711 mmHg 93%
    11:00 -3°C° 0 mm 1 m/s 711 mmHg 91%
    12:00 -4°C° 0 mm 0 m/s 712 mmHg 88%
    13:00 -3°C° 0 mm 0 m/s 712 mmHg 86%
    14:00 -3°C° 0.1 mm 0 m/s 712 mmHg 87%
    15:00 -2°C° 0.1 mm 1 m/s 713 mmHg 88%
    16:00 -3°C° 0.1 mm 1 m/s 713 mmHg 89%
    17:00 -4°C° 0 mm 1 m/s 714 mmHg 91%
    18:00 -7°C° 0 mm 2 m/s 714 mmHg 93%
    19:00 -8°C° 0 mm 2 m/s 715 mmHg 94%
    20:00 -8°C° 0 mm 2 m/s 716 mmHg 94%
    21:00 -8°C° 0 mm 2 m/s 716 mmHg 94%
    22:00 -10°C° 0 mm 3 m/s 717 mmHg 94%
    23:00 -12°C° 0 mm 4 m/s 718 mmHg 91%

    19 Fevereiro, Terça-feira

    Tempo Temperatura Precipitação Vento Pressão Humidade
    00:00 -13°C° 0 mm 5 m/s 718 mmHg 88%
    01:00 -14°C° 0 mm 5 m/s 719 mmHg 85%
    02:00 -17°C° 0 mm 5 m/s 720 mmHg 84%
    03:00 -18°C° 0 mm 5 m/s 721 mmHg 82%
    04:00 -19°C° 0 mm 5 m/s 721 mmHg 80%
    05:00 -20°C° 0 mm 5 m/s 722 mmHg 79%
    06:00 -19°C° 0 mm 4 m/s 723 mmHg 78%
    07:00 -20°C° 0 mm 4 m/s 724 mmHg 76%
    08:00 -18°C° 0 mm 3 m/s 724 mmHg 78%
    09:00 -18°C° 0 mm 3 m/s 725 mmHg 80%
    10:00 -17°C° 0 mm 2 m/s 725 mmHg 82%
    11:00 -16°C° 0 mm 2 m/s 726 mmHg 83%
    12:00 -14°C° 0 mm 2 m/s 726 mmHg 84%
    13:00 -13°C° 0 mm 2 m/s 726 mmHg 85%
    14:00 -13°C° 0 mm 2 m/s 726 mmHg 87%
    15:00 -13°C° 0 mm 2 m/s 726 mmHg 89%
    16:00 -11°C° 0 mm 1 m/s 726 mmHg 91%
    17:00 -12°C° 0.1 mm 1 m/s 726 mmHg 93%
    18:00 -12°C° 0.1 mm 1 m/s 726 mmHg 95%
    19:00 -13°C° 0.1 mm 1 m/s 726 mmHg 97%
    20:00 -14°C° 0.1 mm 2 m/s 725 mmHg 97%
    21:00 -14°C° 0.1 mm 2 m/s 725 mmHg 96%
    22:00 -14°C° 0.1 mm 2 m/s 725 mmHg 96%
    23:00 -14°C° 0.1 mm 2 m/s 725 mmHg 96%

    20 Fevereiro, Quarta-feira

    Tempo Temperatura Precipitação Vento Pressão Humidade
    00:00 -14°C° 0.1 mm 2 m/s 725 mmHg 96%
    01:00 -14°C° 0.1 mm 2 m/s 725 mmHg 96%
    02:00 -13°C° 0.1 mm 2 m/s 724 mmHg 96%
    03:00 -13°C° 0.1 mm 2 m/s 724 mmHg 96%
    04:00 -13°C° 0.1 mm 2 m/s 724 mmHg 95%
    05:00 -14°C° 0.1 mm 3 m/s 724 mmHg 95%
    06:00 -14°C° 0.1 mm 3 m/s 724 mmHg 95%
    07:00 -13°C° 0.1 mm 3 m/s 723 mmHg 95%
    08:00 -13°C° 0.3 mm 3 m/s 723 mmHg 94%
    09:00 -12°C° 0.3 mm 3 m/s 723 mmHg 94%
    10:00 -11°C° 0.3 mm 4 m/s 723 mmHg 94%
    11:00 -11°C° 0.3 mm 4 m/s 723 mmHg 93%
    12:00 -10°C° 0.3 mm 4 m/s 723 mmHg 93%
    13:00 -9°C° 0.3 mm 4 m/s 722 mmHg 92%
    14:00 -8°C° 0.2 mm 4 m/s 722 mmHg 92%
    15:00 -8°C° 0.2 mm 4 m/s 722 mmHg 92%
    16:00 -6°C° 0.2 mm 3 m/s 722 mmHg 92%
    17:00 -6°C° 0.1 mm 3 m/s 722 mmHg 93%
    18:00 -6°C° 0.1 mm 3 m/s 722 mmHg 94%
    19:00 -6°C° 0.1 mm 3 m/s 722 mmHg 95%
    20:00 -6°C° 0.2 mm 3 m/s 722 mmHg 95%
    21:00 -6°C° 0.2 mm 3 m/s 722 mmHg 94%
    22:00 -6°C° 0.2 mm 3 m/s 722 mmHg 94%
    23:00 -6°C° 0.2 mm 3 m/s 722 mmHg 94%

    21 Fevereiro, Quinta-feira

    Tempo Temperatura Precipitação Vento Pressão Humidade
    00:00 -7°C° 0.2 mm 4 m/s 721 mmHg 93%
    01:00 -8°C° 0.2 mm 4 m/s 721 mmHg 93%
    02:00 -8°C° 0.3 mm 4 m/s 721 mmHg 92%
    03:00 -9°C° 0.3 mm 4 m/s 721 mmHg 92%
    04:00 -9°C° 0.3 mm 4 m/s 720 mmHg 91%
    05:00 -10°C° 0.2 mm 4 m/s 720 mmHg 91%
    06:00 -11°C° 0.2 mm 5 m/s 720 mmHg 91%
    07:00 -11°C° 0.2 mm 5 m/s 720 mmHg 92%
    08:00 -11°C° 0.3 mm 5 m/s 719 mmHg 91%
    09:00 -11°C° 0.3 mm 5 m/s 719 mmHg 91%
    10:00 -11°C° 0.3 mm 5 m/s 719 mmHg 90%
    11:00 -10°C° 0.2 mm 5 m/s 719 mmHg 90%
    12:00 -8°C° 0.2 mm 5 m/s 719 mmHg 90%
    13:00 -8°C° 0.2 mm 5 m/s 719 mmHg 89%
    14:00 -7°C° 0.3 mm 5 m/s 719 mmHg 90%
    15:00 -7°C° 0.3 mm 5 m/s 719 mmHg 90%
    16:00 -7°C° 0.3 mm 5 m/s 718 mmHg 90%
    17:00 -7°C° 0.2 mm 5 m/s 718 mmHg 90%
    18:00 -7°C° 0.2 mm 5 m/s 718 mmHg 90%
    19:00 -7°C° 0.2 mm 5 m/s 718 mmHg 90%
    20:00 -7°C° 0.2 mm 5 m/s 718 mmHg 90%
    21:00 -7°C° 0.2 mm 5 m/s 718 mmHg 90%
    22:00 -6°C° 0.2 mm 5 m/s 718 mmHg 90%
    23:00 -6°C° 0.2 mm 5 m/s 718 mmHg 91%
    Mostrar mais